Symphonie 1

operational
NORAD ID: 7578 Int'l Des: 1974-101 Owner: DFVLR/CNES Country: D
HEOCIRCULAR

Symphonie 1について

説明を読み込み中...

リアルタイム位置

3D地球を読み込み中...

次回通過

高度履歴

Altitude vs Time

uPlot chart will show altitude changes over time

軌道要素

1 7578U 74101A 26071.21780878 .00000134 00000-0 00000+0 0 9994
2 7578 4.8242 278.2352 0004419 30.4656 332.4921 0.99951777116231
Epoch: Mar 12, 2026 • Age: 17 hours

現在のステータス

高度 35891.8 km
速度 3.07 km/s
衛星直下点 0.10°N, 32.41°E
タイプ other

大規模コンステレーション

Loading constellations...